EHI
0 0 0 0 0 0 0 0 0 0 0 0 0 0 0 0 0 0 0 0 0 0 0 0 0 0 0 0 1 2 2 1 0 1 0 0 0 0 0 0 0 0 0 0
0 0 0 0 0 0 0 0 0 0 0 0 0 0 0 0 0 0 0 0 0 0 0 0 0 0 0 0 1 2 2 1 0 1 0 0 0 0 0 0 0 0 0 0
0 0 0 0 0 0 0 0 0 0 0 0 0 0 0 0 0 0 0 0 0 0 0 0 0 0 0 0 0 1 2 1 0 0 0 0 0 0 0 0 0 0 0 0
0 0 0 0 0 0 0 0 0 0 0 0 0 0 0 0 0 0 0 0 0 0 0 0 0 0 0 0 0 1 1 1 0 0 0 0 0 0 0 0 0 0 0 0
0 0 0 0 0 0 0 0 0 0 0 0 0 0 0 0 0 0 0 0 0 0 0 0 0 0 0 0 0 0 0 0 0 0 0 0 0 0 0 0 0 0 0 0
0 0 0 0 0 0 0 0 0 0 0 0 0 0 0 0 0 0 0 0 0 0 0 0 0 0 0 0 0 0 0 0 0 0 0 0 0 0 0 0 0 0 0 0
0 0 0 0 0 0 0 0 0 0 0 0 0 0 0 0 0 0 0 0 0 0 0 0 0 0 0 0 0 0 0 0 0 0 0 0 0 0 0 0 0 0 0 0
0 0 0 0 0 0 0 0 0 0 0 0 0 0 0 0 0 0 0 0 0 0 0 0 0 0 0 0 0 0 0 0 0 0 0 0 0 0 0 0 0 0 0 0
0 0 0 0 0 0 0 0 0 0 0 0 0 0 0 0 0 0 0 0 0 0 0 0 0 0 0 0 0 0 0 0 0 0 0 0 0 0 0 0 0 0 0 0
0 0 0 0 0 0 0 0 0 0 0 0 0 0 0 0 0 0 0 0 0 0 0 0 0 0 0 0 0 0 0 0 0 0 0 0 0 0 0 0 0 0 0 0
0 0 0 0 0 0 0 0 0 0 0 0 0 0 0 0 0 0 0 0 0 0 0 0 0 0 0 0 0 0 0 0 0 0 0 1 1 1 0 0 0 0 0 0
0 0 0 0 0 0 0 0 0 0 0 0 0 0 0 0 0 0 0 0 0 0 0 0 0 0 0 0 0 0 0 0 0 0 0 1 2 1 0 0 0 0 0 0
0 0 0 0 0 0 0 0 0 0 0 0 0 0 0 0 0 0 0 0 0 0 0 0 0 0 0 0 0 0 0 0 0 0 0 1 1 0 0 0 0 0 0 0
0 0 0 0 0 0 0 0 0 0 0 0 0 0 0 0 0 0 0 0 0 0 0 0 0 0 0 0 0 0 0 0 0 0 0 0 0 0 0 0 0 0 0 0
0 0 0 0 0 0 0 0 0 0 0 0 0 0 0 0 0 0 0 0 0 0 0 0 0 0 0 0 0 0 0 0 0 0 0 0 0 0 0 0 0 0 0 0
0 0 0 0 0 0 0 0 0 0 0 0 0 0 0 0 0 0 0 0 0 0 0 0 0 0 0 0 0 0 0 0 0 0 0 0 0 0 0 0 0 0 0 0
0 0 0 0 0 0 0 0 0 0 0 0 0 0 0 0 0 0 0 0 0 0 0 0 0 0 0 0 0 0 0 0 0 0 0 0 0 0 0 0 0 0 0 0
0 0 0 0 0 0 0 0 0 0 0 0 0 0 0 0 0 0 0 0 0 0 0 0 0 0 0 0 0 0 0 0 0 0 0 0 0 0 0 0 0 0 0 0
0 0 0 0 0 0 0 0 0 0 0 0 0 0 0 0 0 0 0 0 0 0 0 0 0 0 0 0 0 0 0 0 0 0 0 0 0 0 0 0 0 0 0 0
0 0 0 0 0 0 0 0 0 0 0 0 0 0 0 0 0 0 0 0 0 0 0 0 0 0 0 0 0 0 0 0 0 0 0 0 0 0 0 0 0 0 0 0
0 0 0 0 0 0 0 0 0 0 0 0 0 0 0 0 0 0 0 0 0 0 0 0 0 0 0 0 0 0 0 0 0 0 0 0 0 0 0 0 0 0 0 0
0 0 0 0 0 0 0 0 0 0 0 0 0 0 0 0 0 0 0 0 0 0 0 0 0 0 0 0 0 0 0 0 0 0 0 0 0 0 0 0 0 0 0 0
0 0 0 0 0 0 0 0 0 0 0 0 0 0 0 0 0 0 0 0 0 0 0 0 0 0 0 0 0 0 0 0 0 0 0 0 0 0 0 0 0 0 0 0
0 0 0 0 0 0 0 0 0 0 0 0 0 0 0 0 0 0 0 0 0 0 0 0 0 0 0 0 0 0 0 0 0 0 0 0 0 0 0 0 0 0 0 0
0 0 0 0 0 0 0 0 0 0 0 0 0 0 0 0 0 0 0 0 0 0 0 0 0 0 0 0 0 0 0 0 0 0 0 0 0 0 0 0 0 0 0 0
0 0 0 0 0 0 0 0 0 0 0 0 0 0 0 0 0 0 0 0 0 0 0 0 0 0 0 0 0 0 0 0 0 0 0 0 0 0 0 0 0 0 0 0
Wind_Speed
4 5 11 13 11 5 5 5 5 5 3 5 9 11 11 7 6 8 9 9 11 12 10 9 10 10 10 9 10 9 8 7 6 4 3 3 2 2 1 1 2 2 1 1
3 10 9 6 6 6 5 4 4 3 2 4 5 10 9 8 9 10 11 11 11 9 7 9 9 10 11 11 11 10 9 8 7 5 4 3 3 2 1 1 1 1 1 1
9 6 7 7 8 9 10 8 6 4 1 1 1 7 8 7 7 8 9 10 10 12 12 12 11 11 11 11 12 11 10 9 7 5 3 3 2 1 1 1 1 1 1 1
6 5 6 9 10 10 10 8 7 5 3 4 3 5 8 6 6 8 10 9 10 10 11 12 12 12 12 12 10 10 10 8 7 7 6 6 4 3 3 2 2 2 1 2
6 5 8 11 10 10 6 4 6 4 4 2 2 4 9 3 7 10 10 10 10 10 12 13 13 14 12 10 10 9 9 8 7 7 7 6 4 2 1 1 1 2 1 1
5 3 5 7 5 7 5 4 4 3 3 5 8 7 9 6 10 7 7 7 8 9 9 10 10 9 8 8 8 8 9 8 7 7 7 6 5 4 3 2 2 2 1 1
2 3 2 3 4 3 6 7 3 1 2 8 5 6 11 9 7 8 8 7 7 7 8 9 9 9 9 9 9 8 9 8 7 7 7 6 6 6 6 4 3 2 2 2
4 4 5 3 6 7 8 9 9 8 8 5 3 9 9 6 4 3 4 4 4 6 7 9 10 11 10 10 9 9 9 8 8 8 6 5 5 4 3 4 3 3 3 3
4 5 2 2 3 8 7 6 5 5 2 2 5 6 7 2 1 0 2 3 4 5 6 7 8 9 9 9 9 9 9 7 7 7 6 5 5 4 4 3 3 2 2 2
3 2 3 2 2 1 5 6 5 5 6 5 4 5 5 4 3 2 2 3 3 4 4 5 6 7 7 8 7 7 7 7 7 6 6 5 4 4 4 3 3 3 3 2
1 2 2 1 4 6 5 5 4 4 4 6 4 6 4 5 5 5 4 3 4 4 4 4 5 5 6 5 5 5 5 5 5 5 5 4 3 3 3 3 3 3 2 2
1 2 1 3 3 1 3 5 6 6 5 4 4 6 3 2 2 4 3 3 3 4 3 3 4 5 5 5 5 5 5 5 5 5 4 3 3 2 3 3 3 2 2 2
1 3 2 2 2 1 1 2 4 4 3 4 5 6 3 2 3 3 4 4 3 3 3 3 4 4 5 5 4 4 4 4 4 4 4 3 2 2 2 2 2 2 2 2
1 2 4 7 6 4 4 5 5 5 4 5 6 5 3 1 2 2 3 3 3 3 3 3 3 3 3 4 4 4 3 3 4 4 4 3 3 2 2 1 1 1 1 1
2 1 3 4 4 3 4 5 6 7 7 7 6 6 5 4 2 2 2 3 4 3 3 2 2 2 3 3 3 3 3 3 4 4 4 3 2 2 1 1 0 1 1 1
2 1 2 4 3 3 3 5 7 7 6 6 4 5 3 1 2 2 2 3 3 2 1 2 2 2 3 3 3 3 3 3 3 4 3 3 2 2 1 1 0 1 1 2
1 0 0 3 3 1 4 5 6 5 4 6 8 7 3 1 2 3 3 3 3 2 1 1 1 2 2 3 3 3 3 3 4 3 3 3 3 2 1 1 1 1 1 2
3 1 1 1 1 4 5 1 4 4 2 3 3 2 4 4 3 1 2 3 2 1 1 0 1 1 1 2 3 3 3 3 4 3 2 2 2 2 1 1 1 1 1 1
5 4 2 2 2 5 4 2 0 3 2 1 2 2 3 4 4 3 1 1 1 1 1 1 1 2 2 2 3 4 4 3 3 3 2 2 2 2 1 0 1 1 1 2
2 3 3 2 2 4 4 4 3 2 2 3 2 4 3 3 2 3 2 1 1 2 2 2 2 3 3 2 3 5 4 3 2 1 1 1 1 1 1 1 1 1 1 2
1 1 3 3 3 4 5 6 1 3 4 3 2 3 4 3 3 2 1 2 3 2 3 3 3 3 2 2 4 4 3 2 1 1 1 1 1 1 1 0 0 1 1 2
1 0 1 2 2 4 6 3 1 2 3 1 1 1 3 3 4 3 3 3 3 3 3 3 4 3 2 2 4 4 3 1 2 2 2 1 1 1 1 1 1 1 1 1
1 2 2 2 2 2 2 1 2 2 2 2 1 1 4 4 3 3 3 3 3 3 3 3 4 4 4 3 4 4 2 2 2 3 2 1 2 1 1 1 1 1 1 1
3 2 1 1 2 3 4 5 6 4 3 3 2 2 4 4 4 3 3 3 3 3 3 3 4 5 4 3 4 3 2 2 3 3 2 1 2 2 2 1 1 1 1 1
3 2 1 1 3 3 5 6 6 5 5 6 5 4 3 5 4 3 3 3 2 3 3 3 4 4 3 3 3 3 2 3 3 2 2 2 2 1 2 2 1 2 1 1
2 1 1 3 3 1 3 4 5 5 5 5 5 5 4 3 3 3 3 2 2 3 3 3 4 4 3 3 3 3 3 3 3 2 2 1 1 1 1 2 2 4 4 6
Wind_Direction
176 175 206 204 200 198 170 174 207 225 217 185 219 239 247 239 219 219 215 208 208 212 206 190 181 173 167 167 167 167 162 163 155 152 154 155 174 183 185 195 180 169 162 150
165 226 218 193 196 213 219 216 229 268 247 200 233 253 253 239 224 217 214 212 209 206 194 189 180 174 173 173 173 171 170 168 168 168 166 166 163 180 195 203 197 188 172 171
201 222 190 193 202 207 225 215 211 216 298 298 290 285 260 251 231 227 217 210 206 198 192 187 181 181 176 177 176 175 174 171 169 158 138 119 93 72 84 213 232 237 201 191
226 235 198 198 208 196 228 214 197 194 183 250 182 266 272 244 246 234 225 215 212 204 193 186 181 180 181 182 177 172 170 170 167 159 158 161 167 182 208 206 217 242 219 205
224 208 199 208 209 189 208 173 176 185 180 254 232 230 274 247 239 238 228 219 215 203 190 186 183 182 180 176 172 169 167 169 167 166 166 168 175 188 184 183 202 230 248 232
238 237 208 205 202 189 157 106 78 66 103 242 217 200 265 228 219 226 225 220 208 195 185 181 177 170 168 166 166 166 167 172 171 170 171 174 176 176 170 188 202 223 247 257
258 260 236 166 140 165 157 135 127 172 215 240 203 202 246 244 229 218 218 216 201 183 174 169 166 166 167 166 168 169 170 174 176 176 179 182 182 181 186 192 199 210 233 251
182 238 223 198 175 174 188 165 168 183 203 243 194 222 250 263 258 230 209 197 174 173 171 171 173 171 170 170 170 170 173 176 178 181 185 184 183 186 195 198 200 210 225 236
185 233 269 229 189 154 165 194 168 138 155 203 237 262 294 291 338 81 145 143 163 171 170 169 168 167 168 170 174 174 174 176 180 183 180 183 185 190 199 202 201 212 229 240
164 226 281 279 135 191 164 153 137 157 172 218 244 239 235 228 220 197 158 152 150 144 151 157 161 165 168 172 171 169 171 177 180 178 181 186 190 195 198 197 208 215 229 236
133 178 292 4 193 183 161 169 165 165 181 175 211 251 230 209 200 187 187 171 154 145 145 152 156 158 157 152 154 161 167 166 170 175 174 174 186 191 193 202 214 216 225 232
147 131 223 251 266 207 191 181 160 172 214 193 183 260 307 208 181 157 148 131 125 125 129 135 136 131 131 140 150 160 166 169 176 170 160 165 173 176 187 209 222 216 226 238
142 128 97 347 326 337 210 210 181 157 146 176 182 248 334 60 80 106 118 115 108 105 107 103 117 133 142 147 152 157 163 168 166 157 151 150 157 167 186 214 224 220 231 258
31 163 195 202 219 192 209 219 196 165 187 208 216 224 278 334 91 88 93 104 103 101 106 110 126 142 147 148 151 153 159 159 151 145 144 149 165 172 185 202 220 224 239 268
73 226 256 274 266 212 219 222 205 200 198 200 217 216 235 227 191 153 117 105 97 91 92 107 129 143 141 140 146 151 154 150 146 141 144 157 157 147 143 136 41 351 342 319
37 231 271 285 275 243 255 237 215 223 216 215 215 249 260 223 111 96 115 120 115 113 109 99 108 126 144 156 157 151 149 146 138 140 149 141 129 121 122 112 34 11 356 338
297 169 216 265 293 339 262 230 206 208 208 188 215 228 193 160 150 171 170 148 150 157 131 121 130 149 157 163 153 150 152 134 129 136 133 130 127 125 128 82 36 351 334 334
193 190 211 245 39 228 246 264 186 181 216 217 207 185 175 174 174 150 145 149 151 153 143 148 133 115 119 122 121 126 121 122 125 125 123 127 129 132 127 87 3 326 318 318
195 179 179 173 213 271 301 347 136 178 258 278 181 146 129 129 84 12 356 121 168 178 156 169 153 131 117 120 123 114 105 110 115 119 128 141 139 138 129 101 306 314 320 323
144 158 162 173 185 235 281 303 289 141 276 303 182 162 151 124 132 251 307 64 72 68 81 101 96 93 98 109 116 111 110 108 114 132 146 142 137 143 158 217 283 316 319 315
28 163 195 203 222 262 306 313 35 155 244 292 193 173 160 169 185 189 88 65 71 64 59 74 84 86 94 110 113 111 108 118 134 104 93 89 98 134 162 59 325 330 333 330
166 156 209 182 211 263 333 13 118 244 304 351 77 119 117 100 88 84 83 77 71 60 55 70 84 73 57 82 107 105 100 97 87 86 75 56 39 34 44 43 348 335 333 334
209 217 207 194 212 295 349 357 325 331 344 351 22 86 116 106 96 83 75 77 68 65 63 69 88 79 54 53 91 103 88 83 87 84 71 48 31 28 27 47 347 337 347 346
313 333 128 241 304 337 0 7 3 7 10 11 52 89 106 109 107 95 83 73 72 69 68 74 85 83 63 48 57 77 79 85 92 86 66 50 47 24 12 13 4 346 325 317
309 332 2 296 316 356 5 1 2 17 31 41 44 51 85 106 103 99 82 64 69 64 58 74 87 87 72 60 55 49 58 81 85 77 62 41 34 32 19 12 356 334 309 298
338 308 230 250 269 279 301 330 352 19 27 33 50 46 41 73 99 89 80 68 73 72 67 72 74 76 68 66 59 44 49 76 90 81 59 44 39 28 25 17 1 1 351 348